MOVE-IIB (44398 NORAD) Tracking and Keplerian Element Data

This shows tracking and keplerian element data for the satellite.

Feedback or suggestion? Click here.




ElementValue
Catalog44398
NameMOVE-IIB
Epoch Orbit22958
Epoch Day238.90458348
Epoch Year2023
RAAN225.5435
Inclination97.6627
Eccentricity0.0013007
Argument of Perigee59.1385
Mean Anonmoly301.1143
Mean Motion15.49548631
Decay Rate0.00079818
L11 44398U 19038N 23238.90458348 .00079818 00000+0 14317-2 0 9998
L22 44398 97.6627 225.5435 0013007 59.1385 301.1143 15.49548631229580



Live tracking and technical data element details for MOVE-IIB (NORAD 44398). MOVE-IIB can be tracked NOW for your location showing map with azimuth and elevation plus other details from your city location.







IsCatalogInMostPopularTable: catalog: 44398, numindb: 270
Update: records affected: 1



GetName: 44398 MOVE-IIB

Hit Count: updated at: Fri, 24 Jan 2025 22:20:37 GMT